Simultaneous Nadir Overpasses (SNOs) Predictions

Prediction of SNOs between NPP and TERRA Satellite Orbit:

Table of predicted SNOs for the next 14.0 days since TLE Epoch: 3/22/2013
Index Date (NPP) Time (NPP) Lat,Lon (NPP) SZA (NPP ) Date (TERRA) Time (TERRA) Lat,Lon (TERRA) SZA (TERRA ) Distance(km) Time Diff (sec)
1 03/23/2013 11:29:03 -68.25,-173.92 113.02 03/23/2013 11:30:07 -68.27,-173.91 113.01 2.57 64
2 03/23/2013 12:19:47 68.13, -6.45 66.84 03/23/2013 12:19:35 68.11, -6.46 66.83 1.79 12
3 03/23/2013 13:10:22 -67.66, 161.45 113.65 03/23/2013 13:09:10 -67.72, 160.72 113.57 31.20 72
4 03/26/2013 03:46:00 -68.21, -58.09 114.13 03/26/2013 03:46:38 -68.20, -58.12 114.14 1.18 38
5 03/26/2013 04:36:44 68.08, 109.37 65.74 03/26/2013 04:36:05 68.09, 109.40 65.75 1.30 39
6 03/28/2013 19:12:22 68.63,-110.20 65.28 03/28/2013 19:13:33 68.55,-109.45 65.18 32.00 71
7 03/28/2013 20:02:57 -68.16, 57.72 115.22 03/28/2013 20:03:08 -68.17, 57.72 115.22 0.44 11
8 03/28/2013 20:53:41 68.04,-134.81 64.65 03/28/2013 20:52:35 68.05,-134.77 64.66 2.35 66
9 03/31/2013 11:29:12 68.22, 6.10 63.81 03/31/2013 11:30:08 68.22, 6.04 63.81 2.67 56
10 03/31/2013 12:19:54 -68.13, 173.54 116.30 03/31/2013 12:19:38 -68.12, 173.55 116.31 0.68 16
11 03/31/2013 13:10:25 67.30, -18.15 62.85 03/31/2013 13:09:16 67.39, -19.65 62.97 64.93 69
12 04/03/2013 03:46:08 68.19, 121.91 62.75 04/03/2013 03:46:36 68.22, 121.91 62.77 3.38 28
13 04/03/2013 04:36:50 -68.09, -70.65
